Location: Unspecified
(0.0000°N, 0.0000°E)
Time: 03:37:47
(UTC+02:00)

Ariane H10+ - Visible Passes

Search period start: 23 October 2014 00:00
Search period end: 01 November 2014 23:00
Orbit: 320 x 31815 km, 7.0° (Epoch: 22 October)

Date Brightness Start Highest point End Pass type
(mag) Time Alt. Az. Time Alt. Az. Time Alt. Az.
23 Oct 12.6 06:25:56 10° E 07:23:45 12° E 08:06:42 10° E visible
24 Oct 7.0 04:57:44 58° WNW 05:07:47 81° N 13:26:20 10° E visible
26 Oct 7.2 02:26:39 64° ENE 02:26:39 64° ENE 10:43:24 10° E visible
26 Oct 4.5 20:32:18 10° W 20:34:22 24° WNW 20:34:22 24° WNW visible
28 Oct 8.0 00:55:24 26° E 00:55:24 26° E 08:48:24 10° E visible
29 Oct 7.4 04:48:33 35° WNW 05:19:22 86° NNE 13:21:37 10° E visible
31 Oct 7.1 03:17:01 74° NW 03:20:22 79° N 11:41:29 10° E visible
